[[{"header":{"parameterUnit":"m.s-1","parameterCategory":1,"la1":30.2991,"la2":30.254,"lo1":-89.0895,"lo2":-89.0444,"dx":0.0017,"dy":0.0017,"nx":28,"ny":28,"refTime":"2022-12-18T15:00:00:Z","depth":0,"parameterNumber":2,"parameterNumberName":"U-component_of_WINDS"},"data":[0,0,0,0,0,0,0,0,0,0,0,0,0,0,0,0,0,0,0,0,0,0,0,0,0,0,0,0,0,0,0,0,0,0,0,0,0,0,0,0,0,0,0,0,0,0,0,0,0,0,0,0,0,0,0,0,0,0,-5.0739,-5.0739,0,-5.0739,-5.0739,-5.0739,-5.0579,-5.0575,-5.0571,-5.0567,-5.0569,-5.0573,-5.0577,0,0,0,0,0,0,0,0,0,0,0,0,0,-5.0602,-5.0606,-5.0739,-5.0739,-5.0739,-5.0739,-5.0739,-5.0739,-5.058,-5.0575,-5.057,-5.0565,-5.0568,-5.0573,-5.0577,0,0,0,0,0,0,0,0,0,0,0,0,0,-5.0638,-5.0607,-5.0739,-5.066,-5.0652,-5.0739,-5.0739,-5.0739,-5.0581,-5.0575,-5.0568,-5.0563,-5.0566,-5.0572,-5.0578,-5.0741,0,0,-5.0596,-5.0599,0,0,0,0,0,0,0,0,-5.0636,-5.0643,-5.0671,-5.0665,-5.0657,-5.0653,-5.0692,-5.074,-5.0583,-5.0608,-5.0567,-5.0559,-5.0602,-5.0605,-5.0619,-5.0742,-5.0742,-5.0597,-5.06,-5.0603,-5.0605,0,0,0,0,0,0,0,-5.0634,-5.0642,-5.0739,-5.0672,-5.0663,-5.0624,-5.0622,-5.07,-5.0641,-5.0606,-5.0594,-5.0596,-5.0597,-5.0613,-5.0618,-5.0742,-5.0597,-5.0602,-5.0606,-5.0608,-5.0998,-5.1005,0,0,0,0,0,0,-5.0642,-5.0641,-5.0739,-5.0739,-5.0631,-5.0632,-5.063,-5.0661,-5.0639,-5.063,-5.0601,-5.0589,-5.0606,-5.0611,-5.0617,-5.0807,-5.0603,-5.0609,-5.0612,-5.0991,-5.1,-5.1007,0,0,0,0,0,0,-5.064,-5.0652,-5.0739,-5.0687,-5.0695,-5.0641,-5.0677,-5.0664,-5.068,-5.0636,-5.0625,-5.0629,-5.0602,-5.0609,-5.0711,-5.0805,-5.0611,-5.0617,-5.0983,-5.0994,-5.1003,-5.1189,0,0,0,0,0,0,-5.0637,-5.0653,-5.0714,-5.069,-5.0699,-5.0834,-5.0683,-5.0669,-5.069,-5.0674,-5.0659,-5.0651,-5.0597,-5.0703,-5.0718,-5.081,-5.0621,-5.0975,-5.0988,-5.1,-5.1174,-5.1204,-5.123,0,0,0,0,0,-5.0632,-5.0767,-5.0718,-5.0731,-5.0774,-5.0839,-5.0845,-5.078,-5.0699,-5.076,-5.0732,-5.0651,-5.0792,-5.0715,-5.073,-5.0825,-5.0969,-5.0984,-5.0999,-5.1162,-5.1198,-5.1229,0,0,0,0,0,0,-5.0805,-5.0762,-5.0708,-5.0838,-5.0844,-5.0812,-5.0888,-5.082,-5.085,-5.0833,-5.0751,-5.075,-5.0866,-5.0855,-5.077,-5.0982,-5.0866,-5.0885,-5.0985,-5.1019,-5.1047,-5.1047,-5.0626,0,0,0,0,0,-5.0857,-5.0914,-5.0874,-5.0993,-5.0998,-5.0943,-5.0969,-5.0918,-5.0921,-5.0923,-5.0902,-5.0908,-5.0954,-5.0986,-5.1025,-5.1171,-5.1166,-5.1244,-5.1272,-5.1295,-5.1313,-5.139,-5.1424,-5.1057,-5.1057,-5.1057,0,0,-5.0968,-5.0952,-5.0992,-5.1027,-5.1025,-5.1086,-5.0946,-5.1016,-5.106,-5.0933,-5.1029,-5.1015,-5.1016,-5.1142,-5.1196,-5.1137,-5.1413,-5.1315,-5.1333,-5.1338,-5.1409,-5.1444,-5.1475,-5.1067,-5.1066,-5.1064,0,0,-5.12,-5.1193,-5.1292,-5.1293,-5.1291,-5.1253,-5.1277,-5.1256,-5.1241,-5.1336,-5.1242,-5.1293,-5.1374,-5.1379,-5.1392,-5.1625,-5.1552,-5.164,-5.1786,-5.1862,-5.1891,-5.1916,-5.2,-5.2031,-5.1658,-5.1658,-5.1659,0,-5.1338,-5.1425,-5.1351,-5.1427,-5.1445,-5.1332,-5.1432,-5.1436,-5.1449,-5.1464,-5.1397,-5.1495,-5.1488,-5.1613,-5.167,-5.1684,-5.1709,-5.1642,-5.1893,-5.1917,-5.194,-5.2019,-5.2051,-5.1669,-5.1668,-5.1667,-5.1666,0,-5.1594,-5.1656,-5.1736,-5.175,-5.1776,-5.1864,-5.1804,-5.184,-5.1787,-5.1757,-5.1855,-5.1842,-5.1877,-5.1902,-5.1852,-5.2021,-5.1984,-5.1907,-5.1789,-5.1987,-5.206,-5.209,-5.1684,-5.1681,-5.1677,-5.1675,0,0,-5.1937,-5.1908,-5.1939,-5.1943,-5.1933,-5.198,-5.2062,-5.2095,-5.2128,-5.214,-5.2208,-5.2278,-5.2205,-5.2221,-5.2169,-5.2236,-5.2422,-5.2149,-5.2148,-5.2201,-5.2609,-5.2668,-5.2705,-5.2373,-5.2378,-5.2383,-5.2609,0,-5.2162,-5.2301,-5.2237,-5.2383,-5.2439,-5.2332,-5.2403,-5.2405,-5.2379,-5.2423,-5.2393,-5.2445,-5.2345,-5.2354,-5.2414,-5.2387,-5.2503,-5.2369,-5.2436,-5.2439,-5.244,-5.2742,-5.2806,-5.302,-5.2637,-5.2641,-5.2645,0,-5.2445,-5.2468,-5.262,-5.2599,-5.262,-5.2685,-5.2711,-5.2754,-5.2754,-5.273,-5.2747,-5.2679,-5.2759,-5.2641,-5.275,-5.2661,-5.2684,-5.2674,-5.2681,-5.2686,-5.2555,-5.2757,-5.3086,-5.3119,-5.2689,-5.2686,-5.2682,0,-5.268,-5.2749,-5.2849,-5.2856,-5.2834,-5.2883,-5.2876,-5.2869,-5.2894,-5.2916,-5.2931,-5.2962,-5.298,-5.3006,-5.295,-5.2869,-5.3067,-5.2944,-5.305,-5.3052,-5.3098,-5.3096,-5.3438,-5.3112,-5.3111,-5.3111,-5.311,0,-5.294,-5.3037,-5.2954,-5.3016,-5.3122,-5.3046,-5.3153,-5.3135,-5.313,-5.3186,-5.3095,-5.315,-5.3071,-5.3119,-5.3075,-5.3173,-5.3181,-5.3164,-5.3152,-5.3174,-5.3176,-5.3189,-5.3173,-5.3119,-5.3117,-5.3116,-5.3114,0,-5.3222,-5.317,-5.3272,-5.3242,-5.3237,-5.3316,-5.3291,-5.3347,-5.3313,-5.3386,-5.3399,-5.3347,-5.3398,-5.3343,-5.3391,-5.3361,-5.3493,-5.3458,-5.3493,-5.3484,-5.3593,-5.3584,-5.3956,-5.4001,-5.3646,-5.3649,-5.3652,0,-5.3392,-5.3464,-5.3442,-5.3472,-5.3471,-5.3522,-5.3546,-5.3474,-5.3503,-5.3508,-5.3564,-5.3607,-5.3637,-5.3724,-5.3691,-5.3727,-5.3693,-5.382,-5.3698,-5.3717,-5.3696,-5.3693,-5.37,-5.3846,-5.385,-5.3854,-5.3857,0,-5.3699,-5.3669,-5.3707,-5.3736,-5.3767,-5.3786,-5.3799,-5.3829,-5.3755,-5.3792,-5.3842,-5.3866,-5.3914,-5.3959,-5.3984,-5.3977,-5.3906,-5.3895,-5.3922,-5.3945,-5.3963,-5.3956,-5.3563,-5.3887,-5.3884,-5.3882,-5.388,-5.3879,-5.393,-5.3989,-5.3983,-5.4028,-5.4029,-5.4043,-5.4094,-5.4067,-5.4107,-5.414,-5.4095,-5.4159,-5.4156,-5.4183,-5.4185,-5.4233,-5.4179,-5.4218,-5.4228,-5.4239,-5.4255,-5.3955,-5.4238,-5.4237,-5.4236,-5.4235,-5.4234,0,-5.4233,-5.4224,-5.4265,-5.4285,-5.4321,-5.4248,-5.4258,-5.4293,-5.435,-5.4353,-5.4385,-5.4443,-5.4485,-5.4455,-5.4491,-5.4536,-5.4504,-5.4548,-5.4544,-5.4544,-5.4301,-5.4275,-5.4573,-5.4573,-5.4573,-5.4573,-5.4573,-5.4573,-5.4396,-5.4492,-5.4462,-5.4558,-5.4547,-5.4608,-5.462,-5.4632,-5.4634,-5.4703,-5.4737,-5.4717,-5.4707,-5.4741,-5.4777,-5.4767,-5.4785,-5.4841,-5.482,-5.4594,-5.4561,-5.4529,-5.4504,-5.4845,-5.4846,-5.5058,-5.506,-5.5062]},{"header":{"parameterUnit":"m.s-1","parameterCategory":1,"la1":30.2991,"la2":30.254,"lo1":-89.0895,"lo2":-89.0444,"dx":0.0017,"dy":0.0017,"nx":28,"ny":28,"refTime":"2022-12-18T15:00:00:Z","depth":0,"parameterNumber":3,"parameterNumberName":"V-component_of_WINDS"},"data":[0,0,0,0,0,0,0,0,0,0,0,0,0,0,0,0,0,0,0,0,0,0,0,0,0,0,0,0,0,0,0,0,0,0,0,0,0,0,0,0,0,0,0,0,0,0,0,0,0,0,0,0,0,0,0,0,0,0,-3.408,-3.4079,0,-3.406,-3.4059,-3.4059,-3.3996,-3.3995,-3.3993,-3.3992,-3.3971,-3.3972,-3.3973,0,0,0,0,0,0,0,0,0,0,0,0,0,-3.4061,-3.4062,-3.408,-3.4079,-3.4079,-3.406,-3.4059,-3.4059,-3.3996,-3.3995,-3.3993,-3.3991,-3.3971,-3.3972,-3.3973,0,0,0,0,0,0,0,0,0,0,0,0,0,-3.4058,-3.4062,-3.408,-3.4045,-3.4042,-3.406,-3.4059,-3.4059,-3.3997,-3.3995,-3.3992,-3.399,-3.3971,-3.3972,-3.3973,-3.4022,0,0,-3.3976,-3.3977,0,0,0,0,0,0,0,0,-3.4059,-3.4059,-3.4051,-3.4048,-3.4044,-3.4028,-3.4045,-3.4047,-3.3997,-3.4014,-3.3992,-3.3989,-3.3992,-3.3991,-3.3992,-3.4021,-3.402,-3.3977,-3.3977,-3.3978,-3.3978,0,0,0,0,0,0,0,-3.4059,-3.406,-3.4072,-3.4051,-3.4047,-3.403,-3.4028,-3.4045,-3.4015,-3.4012,-3.4008,-3.4006,-3.399,-3.3991,-3.3991,-3.402,-3.3977,-3.3978,-3.3978,-3.3979,-3.4086,-3.4088,0,0,0,0,0,0,-3.4064,-3.406,-3.4072,-3.4071,-3.4046,-3.4032,-3.4029,-3.4035,-3.4015,-3.4009,-3.4008,-3.4003,-3.399,-3.399,-3.399,-3.4044,-3.3978,-3.3979,-3.3979,-3.4083,-3.4086,-3.4088,0,0,0,0,0,0,-3.4064,-3.4066,-3.4073,-3.4064,-3.4064,-3.4035,-3.4042,-3.4036,-3.4037,-3.4011,-3.4005,-3.4015,-3.3989,-3.3989,-3.4014,-3.4043,-3.3979,-3.398,-3.4081,-3.4084,-3.4087,-3.4155,0,0,0,0,0,0,-3.4064,-3.4066,-3.4085,-3.4065,-3.4065,-3.4098,-3.4044,-3.4037,-3.404,-3.4033,-3.4016,-3.4012,-3.3987,-3.4013,-3.4015,-3.4043,-3.3981,-3.4078,-3.4082,-3.4086,-3.415,-3.416,-3.4168,0,0,0,0,0,-3.4063,-3.4105,-3.4086,-3.4088,-3.4088,-3.41,-3.41,-3.407,-3.4042,-3.406,-3.4043,-3.4012,-3.404,-3.4016,-3.4018,-3.4047,-3.4076,-3.4081,-3.4086,-3.4146,-3.4158,-3.4168,0,0,0,0,0,0,-3.413,-3.4102,-3.4081,-3.4118,-3.4112,-3.4089,-3.4112,-3.4085,-3.4086,-3.408,-3.4044,-3.4041,-3.4071,-3.4061,-3.4036,-3.4092,-3.4052,-3.4058,-3.4097,-3.4109,-3.4118,-3.4119,-3.3982,0,0,0,0,0,-3.4149,-3.4162,-3.4137,-3.4172,-3.4169,-3.4141,-3.4146,-3.4123,-3.4115,-3.4112,-3.4097,-3.409,-3.4097,-3.4102,-3.4107,-3.4148,-3.4142,-3.4169,-3.4178,-3.4186,-3.4191,-3.421,-3.4221,-3.4104,-3.4104,-3.4104,0,0,-3.4189,-3.4175,-3.4185,-3.4185,-3.4177,-3.419,-3.414,-3.4156,-3.4165,-3.4115,-3.4137,-3.4126,-3.4116,-3.4149,-3.4162,-3.4142,-3.4222,-3.4192,-3.4199,-3.4199,-3.4216,-3.4227,-3.4237,-3.4108,-3.4107,-3.4106,0,0,-3.4267,-3.4258,-3.4285,-3.4279,-3.4268,-3.4248,-3.4255,-3.4236,-3.4226,-3.4248,-3.4211,-3.422,-3.4234,-3.4227,-3.4226,-3.4299,-3.427,-3.4302,-3.435,-3.4369,-3.4378,-3.4386,-3.4411,-3.442,-3.4307,-3.4307,-3.4307,0,-3.4317,-3.4335,-3.4303,-3.4321,-3.4321,-3.4276,-3.4302,-3.4297,-3.4289,-3.429,-3.4267,-3.428,-3.4271,-3.43,-3.4318,-3.4319,-3.4324,-3.4303,-3.4379,-3.4387,-3.4394,-3.4417,-3.4426,-3.4311,-3.4311,-3.431,-3.431,0,-3.4397,-3.441,-3.4433,-3.4425,-3.4428,-3.445,-3.442,-3.4427,-3.4404,-3.4387,-3.4408,-3.4395,-3.4395,-3.4401,-3.4379,-3.4427,-3.4414,-3.4386,-3.4345,-3.4409,-3.443,-3.4439,-3.4316,-3.4315,-3.4314,-3.4313,0,0,-3.4517,-3.4489,-3.4498,-3.4493,-3.4477,-3.4486,-3.4505,-3.4505,-3.4511,-3.4506,-3.452,-3.4532,-3.4505,-3.4503,-3.448,-3.4497,-3.4553,-3.4466,-3.4465,-3.4481,-3.4603,-3.4623,-3.4634,-3.4534,-3.4536,-3.4537,-3.4603,0,-3.459,-3.4621,-3.4592,-3.4629,-3.464,-3.4596,-3.4613,-3.4604,-3.4588,-3.4594,-3.4576,-3.4584,-3.4549,-3.4547,-3.4562,-3.4544,-3.4577,-3.4538,-3.4546,-3.4547,-3.4549,-3.4645,-3.4667,-3.473,-3.4611,-3.4612,-3.4613,0,-3.4679,-3.4677,-3.4715,-3.4694,-3.4698,-3.4713,-3.4709,-3.4716,-3.4705,-3.4692,-3.4689,-3.4661,-3.4677,-3.4638,-3.4659,-3.4634,-3.4635,-3.4626,-3.4628,-3.4627,-3.4583,-3.4645,-3.475,-3.4759,-3.4626,-3.4625,-3.4624,0,-3.4761,-3.4768,-3.4791,-3.4788,-3.4765,-3.4776,-3.4767,-3.4754,-3.4755,-3.4752,-3.4752,-3.4751,-3.475,-3.475,-3.4721,-3.4695,-3.4745,-3.4704,-3.4734,-3.4735,-3.4746,-3.4745,-3.4851,-3.4749,-3.4749,-3.4749,-3.4748,0,-3.4844,-3.4869,-3.4827,-3.4841,-3.4867,-3.4832,-3.4858,-3.4845,-3.4833,-3.4842,-3.4805,-3.4815,-3.4777,-3.4783,-3.4761,-3.4781,-3.4781,-3.477,-3.4764,-3.4773,-3.4774,-3.4773,-3.4767,-3.4751,-3.475,-3.475,-3.475,0,-3.494,-3.4913,-3.4935,-3.4911,-3.4905,-3.4925,-3.4903,-3.4915,-3.4896,-3.4909,-3.491,-3.488,-3.4884,-3.4856,-3.4856,-3.4841,-3.4871,-3.4858,-3.4875,-3.487,-3.4901,-3.4898,-3.5008,-3.502,-3.4912,-3.4913,-3.4914,0,-3.4995,-3.5012,-3.4989,-3.4993,-3.4985,-3.4992,-3.4992,-3.4959,-3.4961,-3.4948,-3.496,-3.4962,-3.4961,-3.497,-3.4948,-3.4947,-3.4933,-3.4971,-3.4932,-3.494,-3.4931,-3.493,-3.4931,-3.4979,-3.4981,-3.4982,-3.4983,0,-3.5094,-3.5079,-3.5081,-3.5078,-3.5079,-3.5076,-3.5069,-3.5074,-3.5038,-3.5041,-3.5045,-3.5045,-3.5043,-3.5045,-3.5039,-3.5029,-3.4999,-3.4995,-3.5002,-3.5011,-3.5019,-3.5013,-3.4895,-3.4993,-3.4992,-3.4991,-3.499,-3.499,-3.5169,-3.5182,-3.5167,-3.517,-3.5161,-3.5156,-3.5165,-3.5146,-3.5149,-3.5145,-3.5125,-3.5132,-3.5118,-3.5107,-3.5099,-3.5104,-3.5085,-3.5095,-3.5097,-3.51,-3.5105,-3.5019,-3.5103,-3.5103,-3.5102,-3.5102,-3.5102,0,-3.5265,-3.5253,-3.5256,-3.5247,-3.5249,-3.5221,-3.5212,-3.5215,-3.5222,-3.5212,-3.5211,-3.5214,-3.5215,-3.5193,-3.519,-3.5198,-3.5184,-3.5198,-3.5197,-3.5194,-3.5123,-3.5116,-3.5209,-3.5209,-3.5209,-3.5209,-3.5209,-3.5209,-3.5315,-3.5334,-3.5317,-3.5331,-3.5319,-3.5325,-3.5322,-3.5316,-3.5307,-3.5313,-3.5313,-3.5298,-3.5282,-3.5278,-3.5277,-3.527,-3.527,-3.5288,-3.5277,-3.521,-3.52,-3.519,-3.5184,-3.5289,-3.5289,-3.5348,-3.5349,-3.5349]}]]